SCP
0 0 0 0 0 0 0 0 0 0 0 0 0 0 0 -0 0 0 0 0 0 0 0 0 0 0 0 0 0 0 0 0 -0 -0 0 0 0 0 0 0 0 0 0 0 0 0 0 0 0 0 0 0 0 0
0 0 0 0 0 0 0 0 0 0 0 0 0 0 0 -0 0 0 0 0 0 0 0 0 0 0 0 0 0 0 0 0 0 0 0 0 0 0 0 0 0 0 0 0 0 0 0 0 0 0 0 0 0 0
0 0 0 0 0 0 0 0 0 0 0 0 0 0 -0 0 0 0 0 0 0 0 0 0 0 0 0 0 0 0 0 0 0 -0 0 0 0 0 0 0 0 0 0 0 0 0 0 0 0 0 0 0 0 -0
0 0 0 0 0 0 0 0 0 0 0 0 -0 -0 0 0 0 0 0 0 0 0 0 0 0 0 0 0 0 0 0 0 0 0 0 0 0 0 0 0 0 0 0 0 0 0 0 0 0 0 0 0 -0 -0
0 0 0 0 0 0 0 0 0 0 0 0 -0 -0 -0 0 0 0 0 0 0 0 0 0 0 0 0 0 0 0 0 0 0 0 0 0 0 0 0 0 0 0 0 -0 -0 0 0 0 0 0 -0 -0 -0 -0
0 0 0 0 0 0 0 0 0 0 0 0 -0 -0 0 -0 0 0 0 0 0 0 0 0 0 0 0 0 0 0 0 0 0 0 0 0 0 0 0 0 0 0 0 -0 -0 0 0 0 -0 0 -0 0 0 0
0 0 0 0 0 0 0 0 0 0 0 -0 -0 -0 -0 0 0 0 0 0 0 0 0 0 0 0 0 0 0 0 0 0 0 0 0 0 0 0 0 0 -0 -0 -0 -0 -0 -0 0 -0 -0 -0 0 0 0 0
0 0 0 0 0 0 0 0 0 0 0 -0 -0 -0 0 -0 0 0 0 0 0 0 0 0 0 0 0 0 0 0 0 0 0 0 0 0 0 0 0 -0 -0 0 0 0 0 -0 -0 -0 0 0 0 0 0 0
0 0 0 0 0 0 0 0 0 0 -0 -0 -0 0 0 0 0 0 0 0 0 0 0 0 0 0 0 0 0 0 0 0 0 0 0 0 0 0 0 0 -0 -0 0 -0 0 0 0 0 0 0 0 0 0 0
0 0 0 0 0 0 0 0 0 0 -0 0 0 0 0 0 0 0 0 0 0 0 0 0 0 0 0 0 0 0 0 0 0 0 0 -0 0 0 0 -0 -0 -0 0 0 0 0 0 0 0 0 0 0 0 0
0 0 0 0 0 0 0 0 0 0 0 0 0 0 0 0 0 0 0 0 0 0 0 0 0 0 0 0 0 0 0 0 0 0 0 0 -0 0 -0 -0 0 0 0 0 0 0 0 0 0 0 0 0 0 0
0 0 0 0 0 0 0 0 0 0 0 0 0 0 0 0 0 0 0 0 0 0 0 0 0 0 0 0 0 0 0 0 0 0 0 -0 0 -0 0 0 0 0 0 0 0 0 0 0 0 0 0 0 0 0
0 0 0 0 0 0 -0 0 0 0 0 0 0 0 0 0 0 0 0 0 0 0 0 0 0 0 0 0 0 0 0 0 0 0 0 0 0 0 0 0 0 0 0 0 0 0 0 0 0 0 0 0 0 0
0 0 0 0 0 0 0 0 0 0 0 0 0 0 0 0 0 0 0 0 0 0 0 0 0 0 0 0 0 0 0 0 0 0 -0 0 0 -0 0 0 0 0 0 0 0 0 0 0 0 0 0 0 0 0
0 0 0 0 0 0 0 0 0 0 0 0 0 0 0 0 0 0 0 0 0 0 0 0 0 0 0 0 0 0 0 0 -0 -0 -0 0 -0 -0 -0 0 0 0 0 0 0 0 0 0 0 0 0 0 0 0
0 0 0 0 0 0 0 0 0 0 0 0 0 0 0 0 0 0 0 0 0 0 0 0 0 0 0 0 0 0 0 0 -0 -0 -0 -0 -0 -0 -0 0 0 0 0 0 0 0 0 0 0 0 0 0 0 0
0 0 0 0 0 0 0 0 0 0 0 0 0 0 0 0 0 0 0 0 0 0 0 0 0 0 0 0 0 0 0 0 0 0 0 0 -0 -0 -0 0 0 0 0 0 0 0 0 0 0 0 0 0 0 0
0 0 0 0 0 0 0 0 0 0 0 0 0 0 0 0 0 0 0 0 0 0 0 0 0 0 0 0 0 0 0 0 0 0 0 0 0 0 -0 -0 -0 0 0 0 0 0 0 0 0 0 0 0 0 0
0 0 0 0 0 0 0 0 0 0 0 0 0 0 0 0 0 0 0 0 0 0 0 0 0 0 0 0 0 0 0 0 0 0 0 0 0 0 0 0 0 0 0 0 0 0 0 0 0 0 0 0 0 0
0 0 0 0 0 0 0 0 0 0 0 0 0 0 0 0 0 0 0 0 0 0 0 0 0 0 0 0 0 0 0 0 0 0 0 0 0 0 0 0 0 0 0 0 0 0 0 0 0 0 0 0 0 0
0 0 0 0 0 0 0 0 0 0 0 0 0 0 0 0 0 0 0 0 0 0 0 0 0 0 0 0 0 0 0 0 0 0 0 0 0 0 0 0 0 0 0 0 0 0 0 0 0 0 0 0 0 0
0 0 0 0 0 0 0 0 0 0 0 0 0 0 0 0 0 0 0 0 0 0 0 0 0 0 0 0 0 0 0 0 0 0 0 0 0 0 0 0 0 0 0 0 0 0 0 0 0 0 0 0 0 0
0 0 0 0 0 0 0 0 0 0 0 0 0 0 0 0 0 0 0 0 0 0 0 0 0 0 0 0 0 0 0 0 0 0 0 0 0 0 0 0 0 0 0 0 0 0 0 0 0 0 0 0 0 0
0 0 0 0 0 0 0 0 0 0 0 0 0 0 0 0 0 0 0 0 0 0 0 0 0 0 0 0 0 0 0 0 0 0 0 0 0 0 0 0 0 0 0 0 0 0 0 0 0 0 0 0 0 0
0 0 0 0 0 0 0 0 0 0 0 0 0 0 0 0 0 0 0 0 0 0 0 0 0 0 0 0 0 0 0 0 0 0 0 0 0 0 0 0 0 0 0 0 0 0 0 0 0 0 0 0 0 0
0 0 0 0 0 0 0 0 0 0 0 0 0 0 0 0 0 0 0 0 0 0 0 0 0 0 0 0 0 0 0 0 0 0 0 0 0 0 0 0 0 0 0 0 0 0 0 0 0 0 0 0 0 0
0 0 0 0 0 0 0 0 0 0 0 0 0 0 0 0 0 0 0 0 0 0 0 0 0 0 0 0 0 0 0 0 0 0 0 0 0 0 0 0 0 0 0 0 0 0 0 0 0 0 0 0 0 0
0 0 0 0 0 0 0 0 0 0 0 0 0 0 0 0 0 0 0 0 0 0 0 0 0 0 0 0 0 0 0 0 0 0 0 0 0 0 0 0 0 0 0 0 0 0 0 0 0 0 0 0 0 0
0 0 0 0 0 0 0 0 0 0 0 0 0 0 0 0 0 0 0 0 0 0 0 0 0 0 0 0 0 0 0 0 0 0 0 0 0 0 0 0 0 0 0 0 0 0 0 0 0 0 0 0 0 0
0 0 0 0 0 0 0 0 0 0 0 0 0 0 0 0 0 0 0 0 0 0 0 0 0 0 0 0 0 0 0 0 0 0 0 0 0 0 0 0 0 0 0 0 0 0 0 0 0 0 0 0 0 0
0 0 0 0 0 0 0 0 0 0 0 0 0 0 0 0 0 0 0 0 0 0 0 0 0 0 0 0 0 0 0 0 0 0 0 0 0 0 0 0 0 0 0 0 0 0 0 0 0 0 0 0 0 0
0 0 0 0 0 0 0 0 0 0 0 0 0 0 0 0 0 0 0 0 0 0 0 0 0 0 0 0 0 0 0 0 0 0 0 0 0 0 0 0 0 0 0 0 0 0 0 0 0 0 0 0 0 0
0 0 0 0 0 0 0 0 0 0 0 0 0 0 0 0 0 0 0 0 0 0 0 0 0 0 0 0 0 0 0 0 0 0 0 0 0 0 0 0 0 0 0 0 0 0 0 0 0 0 0 0 0 0
Wind_Speed_500mb
80 86 81 93 89 84 78 81 75 77 72 66 56 53 46 37 27 20 15 16 15 6 9 5 4 1 5 5 6 15 13 5 10 10 9 7 6 9 9 8 17 13 15 11 12 14 14 71 28 19 19 38 42 53
87 91 83 92 90 88 81 81 73 68 79 70 62 56 48 39 30 22 20 18 19 11 7 4 5 7 4 4 4 9 4 9 11 6 5 5 5 7 8 9 13 8 9 8 14 8 13 30 29 41 41 32 43 43
92 90 97 90 94 87 83 82 78 70 77 71 64 58 49 40 32 24 20 17 19 10 4 4 5 3 3 4 4 1 1 7 6 9 7 4 5 4 9 8 11 6 18 4 3 13 16 39 34 37 37 36 34 40
88 86 89 100 88 84 84 88 89 79 78 71 65 59 51 42 31 25 22 18 20 5 4 4 9 8 8 7 6 6 4 6 9 8 5 4 5 5 6 8 6 6 16 9 6 10 5 32 34 27 26 34 42 45
89 95 98 90 98 90 83 84 88 83 82 72 67 61 52 41 31 23 23 21 23 9 0 4 6 12 13 11 9 6 5 1 5 4 4 3 5 6 3 5 5 6 5 5 6 9 7 12 21 21 28 35 37 39
89 85 85 86 90 99 94 92 86 87 82 75 69 60 50 38 28 21 13 25 26 20 3 3 5 1 8 12 10 8 5 3 2 3 6 7 3 5 5 5 4 1 4 4 5 5 9 11 23 25 29 32 34 38
87 83 90 81 86 85 88 88 91 90 82 76 65 56 48 38 29 22 7 9 25 19 6 4 5 2 11 10 5 4 3 5 5 2 3 6 4 4 4 5 9 5 3 4 3 7 7 6 10 22 27 30 31 35
87 85 91 88 91 96 105 104 104 95 87 80 69 61 49 36 28 21 15 12 18 11 7 3 4 5 13 6 4 4 2 3 2 2 3 5 7 3 7 13 11 12 13 11 9 8 14 18 17 18 20 21 23 32
85 94 92 94 100 105 109 111 104 97 92 81 74 54 35 22 16 17 20 17 19 9 5 7 6 5 15 6 4 1 3 3 3 4 2 1 4 9 7 20 26 19 19 19 20 22 22 22 24 20 17 20 22 30
87 85 94 91 103 118 118 116 108 106 95 81 67 27 17 18 16 20 14 9 11 10 11 8 10 6 13 11 5 4 1 1 3 3 1 5 7 15 12 21 23 23 22 25 31 25 25 24 23 20 18 19 20 24
84 82 92 107 106 126 123 122 121 107 97 80 28 15 26 40 22 11 6 7 6 6 12 9 13 9 15 6 6 6 3 1 3 3 4 3 7 9 30 27 21 21 27 29 23 19 22 19 23 22 23 22 23 24
83 82 103 107 139 140 132 133 127 117 85 57 32 46 42 13 7 6 4 2 8 5 14 12 10 9 11 9 7 8 2 3 5 5 1 6 5 22 39 35 28 28 33 36 29 29 29 28 25 24 23 23 23 24
91 84 94 142 143 134 130 132 122 112 84 64 20 15 13 9 7 13 15 7 6 21 25 18 11 10 10 7 7 5 7 4 8 4 6 7 10 33 40 37 33 32 34 32 33 32 29 27 26 21 21 23 22 21
88 80 118 153 142 141 144 139 128 102 79 16 20 12 12 9 11 10 5 6 13 16 46 36 17 6 8 7 3 5 3 3 4 5 8 4 26 43 41 36 33 35 35 36 36 33 30 27 25 25 22 20 19 19
104 88 128 150 146 150 137 138 121 91 19 16 17 12 12 10 7 14 17 19 19 51 50 24 15 7 5 6 2 6 3 8 9 7 3 9 30 44 44 42 39 40 41 39 36 33 30 27 25 24 23 21 20 17
107 134 153 165 154 147 147 126 103 41 6 9 9 9 9 9 7 16 22 19 44 56 27 12 9 6 5 4 8 13 6 11 6 5 11 24 43 45 43 42 40 43 45 43 41 39 35 31 28 24 24 24 23 21
136 109 141 159 159 148 128 111 59 10 10 7 5 11 15 10 18 22 30 32 56 31 5 9 10 6 10 4 7 8 9 4 8 16 16 29 41 44 46 45 45 49 48 45 41 36 33 32 29 27 25 25 24 23
112 136 157 162 154 129 89 57 14 13 6 6 8 14 12 12 25 27 26 52 38 18 17 7 17 7 9 9 7 8 22 15 13 15 24 30 39 44 48 47 49 50 48 44 40 38 36 34 32 31 27 25 25 24
142 163 159 155 137 92 23 14 9 9 6 10 15 24 14 14 16 28 31 63 26 22 13 13 4 7 8 16 15 14 20 23 19 25 27 31 38 46 51 51 52 51 47 43 41 39 35 33 30 27 27 28 28 27
154 158 151 125 96 30 14 12 14 10 9 14 19 19 15 11 21 24 45 43 25 13 7 8 10 11 12 12 15 16 14 21 23 32 33 38 46 52 52 54 55 51 47 44 43 41 38 37 35 33 31 30 27 23
140 122 123 94 53 20 15 13 11 12 21 11 27 16 11 21 16 16 29 34 15 11 12 26 27 17 18 15 17 19 17 22 29 31 33 48 55 57 59 59 54 51 50 48 46 43 40 37 34 33 32 31 28 25
110 127 102 64 16 13 17 13 19 21 10 18 19 12 10 8 12 15 19 20 16 21 23 26 29 32 33 27 24 23 20 26 30 34 26 38 56 62 65 64 61 58 53 47 42 39 40 38 36 35 32 29 27 24
109 92 34 13 14 13 11 10 8 8 6 14 13 8 5 6 11 19 9 19 23 35 45 53 50 40 37 40 37 33 32 34 37 37 34 39 51 55 57 61 59 55 53 51 46 43 40 37 36 35 33 31 28 25
78 18 11 10 12 9 12 6 8 10 11 5 5 6 3 5 13 4 8 14 32 37 48 59 63 56 50 48 49 47 42 40 41 42 42 41 51 58 55 55 54 51 47 43 45 44 42 40 37 38 35 33 31 27
18 9 11 10 10 12 8 7 4 4 5 5 7 4 5 10 3 6 7 14 33 47 51 52 56 58 55 53 51 49 46 44 47 49 45 46 48 55 59 57 55 52 50 52 50 47 44 41 42 41 38 35 29 23
13 5 5 10 9 7 10 10 12 10 7 7 4 10 8 5 3 12 8 10 14 16 23 36 49 52 53 50 45 46 45 43 45 47 45 46 47 52 58 63 64 62 59 53 47 46 43 42 41 40 37 32 27 21
9 3 6 10 16 19 10 9 12 7 8 11 9 10 7 7 12 9 11 13 13 11 12 15 28 39 43 41 37 36 38 40 45 43 38 41 43 45 46 48 49 45 44 46 46 44 41 39 39 38 34 31 24 18
9 12 11 19 11 8 9 7 9 12 9 18 30 11 15 13 8 5 6 13 8 6 9 9 16 27 35 36 34 33 41 44 45 43 44 41 45 46 47 46 43 41 40 41 41 41 40 37 35 34 32 27 21 19
7 20 22 6 8 9 12 8 12 12 20 27 9 7 9 9 7 6 8 13 12 7 5 5 10 21 28 30 34 36 37 40 44 47 49 49 49 49 50 49 47 45 43 41 41 39 39 38 37 34 30 24 20 18
8 15 7 5 8 7 7 11 11 18 24 23 11 6 8 11 11 12 14 13 11 10 9 11 13 19 23 28 31 36 37 38 40 39 40 38 38 37 43 45 44 42 40 43 45 48 49 45 39 34 27 23 19 16
25 11 7 5 5 4 7 12 9 13 14 16 22 19 14 9 13 19 21 20 18 18 18 18 19 22 26 28 30 32 33 36 37 35 32 29 30 32 37 40 40 39 40 43 46 43 41 40 36 30 26 23 18 14
7 4 5 4 2 4 10 10 7 4 4 7 8 13 9 9 8 9 13 19 24 22 21 22 23 22 25 28 29 30 27 30 32 31 29 27 26 31 34 38 38 39 43 44 43 42 41 36 31 29 26 21 14 10
6 6 6 8 6 5 10 9 7 1 6 5 5 6 10 6 6 8 12 11 15 22 25 26 28 28 31 32 31 31 28 27 34 32 28 27 26 29 34 39 40 43 44 46 45 41 38 34 32 27 22 16 11 8
Wind_Direction_500mb
224 225 219 216 215 213 222 208 207 201 210 202 200 203 206 211 217 227 253 239 230 257 277 223 229 123 322 316 333 339 307 32 332 19 4 20 327 358 297 316 332 349 342 3 348 24 10 349 353 42 342 15 13 29
220 222 217 216 217 218 213 211 210 212 208 194 199 201 205 209 216 226 241 240 233 235 261 233 247 264 199 271 337 16 9 345 345 318 19 304 333 322 339 354 10 39 16 354 25 47 26 2 21 29 35 32 31 48
221 210 213 211 216 213 212 213 214 211 204 190 198 200 204 208 215 226 243 237 223 249 265 196 199 232 163 156 164 323 40 1 346 331 318 324 311 324 348 7 309 84 17 37 204 19 58 29 30 31 37 36 51 56
218 223 217 214 214 214 219 215 213 204 190 191 197 198 202 208 215 226 238 230 222 235 219 207 188 199 201 191 193 206 221 323 323 340 310 308 308 19 331 314 317 0 318 356 73 39 162 30 21 22 49 66 67 76
214 213 213 216 212 211 216 218 207 196 184 189 195 198 201 207 215 228 232 227 226 222 140 156 198 237 224 194 194 205 212 338 333 316 275 298 308 312 258 292 263 21 3 357 74 31 28 29 17 46 71 72 77 75
210 216 214 214 214 216 215 212 200 187 180 189 191 195 200 204 211 205 218 232 222 213 211 198 206 175 155 170 180 190 198 185 184 288 293 289 332 307 306 278 128 81 68 92 72 37 81 51 51 69 81 82 80 80
207 211 211 218 208 212 215 203 196 181 181 187 184 192 198 201 204 196 221 189 183 183 202 135 171 156 143 153 202 220 207 203 170 225 258 295 260 317 261 261 139 175 163 172 159 122 65 70 84 81 84 87 85 84
205 208 208 215 213 213 213 193 181 175 182 178 184 191 193 195 197 215 207 186 176 186 199 165 114 152 172 194 206 205 190 204 267 181 259 302 298 243 251 234 188 171 150 152 155 149 131 128 115 102 91 87 93 89
208 211 210 212 211 208 199 186 173 178 176 180 183 180 177 190 197 214 206 201 196 215 214 198 204 163 162 169 151 151 211 221 253 230 135 258 186 232 217 190 189 183 172 165 151 142 141 146 141 134 132 123 118 111
206 208 211 209 204 199 188 174 172 179 178 173 168 151 172 182 184 168 171 191 204 218 217 217 161 130 158 163 158 165 294 331 225 141 268 225 260 242 199 177 181 178 179 171 159 156 159 153 143 140 140 127 120 119
202 206 214 203 201 192 180 172 178 177 171 162 159 159 159 149 147 173 169 188 196 234 206 182 180 137 177 157 166 201 146 84 264 102 272 216 262 205 180 174 178 181 182 178 178 178 173 171 159 158 151 140 131 132
198 201 201 194 184 183 175 176 178 172 167 164 157 129 131 156 150 175 183 181 222 217 171 156 153 136 149 151 155 173 186 186 233 134 261 257 216 174 174 174 179 178 176 177 183 181 173 166 162 157 147 138 134 130
190 191 192 185 186 183 182 178 177 169 155 138 122 152 145 161 182 195 188 205 224 176 174 155 137 151 127 145 94 170 193 200 128 216 235 236 181 178 179 176 172 172 174 177 173 167 165 164 156 151 149 145 138 131
189 183 185 181 184 183 175 175 173 155 140 132 165 155 199 176 237 192 189 128 158 158 152 140 122 143 132 134 113 207 74 243 219 238 239 200 207 183 180 180 178 175 173 173 173 172 172 172 167 161 157 152 147 145
191 185 185 187 188 177 175 173 168 154 133 172 169 193 198 166 137 157 139 131 137 151 141 121 102 127 117 117 162 111 151 236 221 235 182 198 182 180 181 182 180 180 174 174 175 175 175 174 172 169 162 154 147 150
183 177 177 180 177 174 166 164 155 142 144 168 156 124 129 138 143 163 159 146 151 153 138 123 124 138 146 127 165 215 210 225 212 198 197 171 174 182 186 186 183 181 179 178 179 180 178 176 176 174 169 164 162 161
174 169 171 165 166 165 159 153 141 124 216 154 115 163 168 116 168 167 162 163 161 157 144 140 155 170 113 156 234 197 218 269 181 176 183 182 183 182 184 184 183 181 180 179 180 177 178 179 179 179 179 172 170 169
162 159 154 160 158 151 143 151 120 168 150 131 156 170 144 139 155 158 163 163 162 184 155 174 138 175 195 194 224 215 219 210 199 188 179 182 185 185 183 183 181 181 181 181 183 184 185 186 184 181 181 180 180 181
157 158 164 168 160 143 132 140 159 126 108 132 138 151 139 142 158 168 169 168 168 163 155 155 182 209 219 217 217 192 201 202 200 187 181 182 183 184 180 179 182 183 186 188 189 189 190 189 190 191 190 192 191 191
160 159 163 153 148 131 103 104 146 118 131 151 147 141 130 134 146 161 168 172 163 168 189 205 219 221 217 219 203 207 221 217 204 180 182 181 179 180 184 185 186 188 189 190 192 194 195 195 195 194 198 200 200 200
139 142 145 146 121 90 100 123 100 99 124 130 141 122 105 132 132 153 178 180 198 223 236 230 231 233 232 220 207 212 222 218 213 213 205 190 186 185 187 188 191 195 198 198 199 201 200 203 203 200 200 201 202 204
139 150 141 138 93 84 78 70 112 118 110 126 131 132 141 156 141 158 168 195 234 233 219 234 241 238 238 227 225 228 225 214 213 215 220 213 195 193 194 194 195 197 200 203 205 206 206 204 204 203 201 201 206 209
138 137 121 91 83 62 94 82 86 78 106 162 142 121 146 128 154 161 223 228 241 233 235 239 241 240 237 231 226 226 230 220 218 216 215 213 209 209 206 202 202 203 202 202 203 205 207 208 205 206 205 202 205 215
138 108 83 79 78 105 125 75 97 111 120 142 139 129 161 137 156 167 257 249 239 241 237 237 237 235 233 231 228 230 227 226 218 214 214 212 210 210 210 210 208 207 208 212 210 209 209 209 212 210 208 206 210 217
93 49 100 67 109 122 116 134 112 101 107 153 133 162 159 160 158 225 237 256 240 238 237 232 229 229 230 233 232 226 224 222 220 217 213 210 210 209 207 207 208 209 209 209 211 211 210 210 211 210 208 208 212 215
79 29 79 148 151 138 158 130 175 157 133 145 146 123 136 134 226 242 227 232 244 253 244 236 233 229 228 228 230 230 228 224 218 217 219 218 216 216 215 210 208 208 210 211 214 214 214 212 210 209 206 208 209 212
113 165 104 109 124 123 99 94 135 126 153 164 163 163 156 186 231 245 258 256 264 279 283 251 227 221 223 225 226 224 216 216 218 218 219 217 216 215 215 224 224 222 219 218 215 212 215 213 209 205 204 204 205 213
100 147 138 144 118 139 132 141 151 181 167 161 144 182 180 205 238 209 264 296 306 302 297 266 220 211 210 214 214 215 212 209 208 208 208 209 209 207 204 206 210 213 212 212 212 209 205 204 203 201 200 198 197 208
87 132 128 103 141 178 191 173 191 172 159 169 165 197 229 232 234 247 292 311 316 304 269 237 208 203 204 206 207 207 207 209 206 204 207 208 205 205 204 205 208 208 206 203 201 200 197 194 194 195 195 189 195 208
133 150 111 126 156 177 173 177 185 182 185 184 196 231 243 244 251 262 283 288 286 269 241 218 210 204 207 210 207 203 203 202 205 211 219 219 219 215 211 209 205 202 201 198 195 190 189 191 191 191 183 183 195 210
153 155 121 121 132 169 175 181 179 189 202 217 230 243 252 275 280 273 262 257 251 243 229 215 210 206 201 202 206 208 206 206 204 208 211 213 212 212 210 203 200 200 198 195 195 195 190 184 185 178 177 187 196 214
134 98 107 122 99 150 155 171 171 194 235 238 247 234 255 247 259 266 268 255 239 231 226 217 209 205 203 199 202 205 206 208 210 211 210 209 204 201 199 199 200 196 193 190 184 183 181 182 174 174 181 186 195 210
110 138 113 113 112 173 178 166 181 234 235 247 259 238 221 228 267 283 310 292 250 229 218 211 206 205 203 203 205 206 206 205 203 204 205 200 194 197 198 197 195 189 185 181 180 180 179 169 171 176 178 184 192 206
Wind_Speed_850mb
80 86 81 93 89 84 78 81 75 77 72 66 56 53 46 37 27 20 15 16 15 6 9 5 4 1 5 5 6 15 13 5 10 10 9 7 6 9 9 8 17 13 15 11 12 14 14 71 28 19 19 38 42 53
87 91 83 92 90 88 81 81 73 68 79 70 62 56 48 39 30 22 20 18 19 11 7 4 5 7 4 4 4 9 4 9 11 6 5 5 5 7 8 9 13 8 9 8 14 8 13 30 29 41 41 32 43 43
92 90 97 90 94 87 83 82 78 70 77 71 64 58 49 40 32 24 20 17 19 10 4 4 5 3 3 4 4 1 1 7 6 9 7 4 5 4 9 8 11 6 18 4 3 13 16 39 34 37 37 36 34 40
88 86 89 100 88 84 84 88 89 79 78 71 65 59 51 42 31 25 22 18 20 5 4 4 9 8 8 7 6 6 4 6 9 8 5 4 5 5 6 8 6 6 16 9 6 10 5 32 34 27 26 34 42 45
89 95 98 90 98 90 83 84 88 83 82 72 67 61 52 41 31 23 23 21 23 9 0 4 6 12 13 11 9 6 5 1 5 4 4 3 5 6 3 5 5 6 5 5 6 9 7 12 21 21 28 35 37 39
89 85 85 86 90 99 94 92 86 87 82 75 69 60 50 38 28 21 13 25 26 20 3 3 5 1 8 12 10 8 5 3 2 3 6 7 3 5 5 5 4 1 4 4 5 5 9 11 23 25 29 32 34 38
87 83 90 81 86 85 88 88 91 90 82 76 65 56 48 38 29 22 7 9 25 19 6 4 5 2 11 10 5 4 3 5 5 2 3 6 4 4 4 5 9 5 3 4 3 7 7 6 10 22 27 30 31 35
87 85 91 88 91 96 105 104 104 95 87 80 69 61 49 36 28 21 15 12 18 11 7 3 4 5 13 6 4 4 2 3 2 2 3 5 7 3 7 13 11 12 13 11 9 8 14 18 17 18 20 21 23 32
85 94 92 94 100 105 109 111 104 97 92 81 74 54 35 22 16 17 20 17 19 9 5 7 6 5 15 6 4 1 3 3 3 4 2 1 4 9 7 20 26 19 19 19 20 22 22 22 24 20 17 20 22 30
87 85 94 91 103 118 118 116 108 106 95 81 67 27 17 18 16 20 14 9 11 10 11 8 10 6 13 11 5 4 1 1 3 3 1 5 7 15 12 21 23 23 22 25 31 25 25 24 23 20 18 19 20 24
84 82 92 107 106 126 123 122 121 107 97 80 28 15 26 40 22 11 6 7 6 6 12 9 13 9 15 6 6 6 3 1 3 3 4 3 7 9 30 27 21 21 27 29 23 19 22 19 23 22 23 22 23 24
83 82 103 107 139 140 132 133 127 117 85 57 32 46 42 13 7 6 4 2 8 5 14 12 10 9 11 9 7 8 2 3 5 5 1 6 5 22 39 35 28 28 33 36 29 29 29 28 25 24 23 23 23 24
91 84 94 142 143 134 130 132 122 112 84 64 20 15 13 9 7 13 15 7 6 21 25 18 11 10 10 7 7 5 7 4 8 4 6 7 10 33 40 37 33 32 34 32 33 32 29 27 26 21 21 23 22 21
88 80 118 153 142 141 144 139 128 102 79 16 20 12 12 9 11 10 5 6 13 16 46 36 17 6 8 7 3 5 3 3 4 5 8 4 26 43 41 36 33 35 35 36 36 33 30 27 25 25 22 20 19 19
104 88 128 150 146 150 137 138 121 91 19 16 17 12 12 10 7 14 17 19 19 51 50 24 15 7 5 6 2 6 3 8 9 7 3 9 30 44 44 42 39 40 41 39 36 33 30 27 25 24 23 21 20 17
107 134 153 165 154 147 147 126 103 41 6 9 9 9 9 9 7 16 22 19 44 56 27 12 9 6 5 4 8 13 6 11 6 5 11 24 43 45 43 42 40 43 45 43 41 39 35 31 28 24 24 24 23 21
136 109 141 159 159 148 128 111 59 10 10 7 5 11 15 10 18 22 30 32 56 31 5 9 10 6 10 4 7 8 9 4 8 16 16 29 41 44 46 45 45 49 48 45 41 36 33 32 29 27 25 25 24 23
112 136 157 162 154 129 89 57 14 13 6 6 8 14 12 12 25 27 26 52 38 18 17 7 17 7 9 9 7 8 22 15 13 15 24 30 39 44 48 47 49 50 48 44 40 38 36 34 32 31 27 25 25 24
142 163 159 155 137 92 23 14 9 9 6 10 15 24 14 14 16 28 31 63 26 22 13 13 4 7 8 16 15 14 20 23 19 25 27 31 38 46 51 51 52 51 47 43 41 39 35 33 30 27 27 28 28 27
154 158 151 125 96 30 14 12 14 10 9 14 19 19 15 11 21 24 45 43 25 13 7 8 10 11 12 12 15 16 14 21 23 32 33 38 46 52 52 54 55 51 47 44 43 41 38 37 35 33 31 30 27 23
140 122 123 94 53 20 15 13 11 12 21 11 27 16 11 21 16 16 29 34 15 11 12 26 27 17 18 15 17 19 17 22 29 31 33 48 55 57 59 59 54 51 50 48 46 43 40 37 34 33 32 31 28 25
110 127 102 64 16 13 17 13 19 21 10 18 19 12 10 8 12 15 19 20 16 21 23 26 29 32 33 27 24 23 20 26 30 34 26 38 56 62 65 64 61 58 53 47 42 39 40 38 36 35 32 29 27 24
109 92 34 13 14 13 11 10 8 8 6 14 13 8 5 6 11 19 9 19 23 35 45 53 50 40 37 40 37 33 32 34 37 37 34 39 51 55 57 61 59 55 53 51 46 43 40 37 36 35 33 31 28 25
78 18 11 10 12 9 12 6 8 10 11 5 5 6 3 5 13 4 8 14 32 37 48 59 63 56 50 48 49 47 42 40 41 42 42 41 51 58 55 55 54 51 47 43 45 44 42 40 37 38 35 33 31 27
18 9 11 10 10 12 8 7 4 4 5 5 7 4 5 10 3 6 7 14 33 47 51 52 56 58 55 53 51 49 46 44 47 49 45 46 48 55 59 57 55 52 50 52 50 47 44 41 42 41 38 35 29 23
13 5 5 10 9 7 10 10 12 10 7 7 4 10 8 5 3 12 8 10 14 16 23 36 49 52 53 50 45 46 45 43 45 47 45 46 47 52 58 63 64 62 59 53 47 46 43 42 41 40 37 32 27 21
9 3 6 10 16 19 10 9 12 7 8 11 9 10 7 7 12 9 11 13 13 11 12 15 28 39 43 41 37 36 38 40 45 43 38 41 43 45 46 48 49 45 44 46 46 44 41 39 39 38 34 31 24 18
9 12 11 19 11 8 9 7 9 12 9 18 30 11 15 13 8 5 6 13 8 6 9 9 16 27 35 36 34 33 41 44 45 43 44 41 45 46 47 46 43 41 40 41 41 41 40 37 35 34 32 27 21 19
7 20 22 6 8 9 12 8 12 12 20 27 9 7 9 9 7 6 8 13 12 7 5 5 10 21 28 30 34 36 37 40 44 47 49 49 49 49 50 49 47 45 43 41 41 39 39 38 37 34 30 24 20 18
8 15 7 5 8 7 7 11 11 18 24 23 11 6 8 11 11 12 14 13 11 10 9 11 13 19 23 28 31 36 37 38 40 39 40 38 38 37 43 45 44 42 40 43 45 48 49 45 39 34 27 23 19 16
25 11 7 5 5 4 7 12 9 13 14 16 22 19 14 9 13 19 21 20 18 18 18 18 19 22 26 28 30 32 33 36 37 35 32 29 30 32 37 40 40 39 40 43 46 43 41 40 36 30 26 23 18 14
7 4 5 4 2 4 10 10 7 4 4 7 8 13 9 9 8 9 13 19 24 22 21 22 23 22 25 28 29 30 27 30 32 31 29 27 26 31 34 38 38 39 43 44 43 42 41 36 31 29 26 21 14 10
6 6 6 8 6 5 10 9 7 1 6 5 5 6 10 6 6 8 12 11 15 22 25 26 28 28 31 32 31 31 28 27 34 32 28 27 26 29 34 39 40 43 44 46 45 41 38 34 32 27 22 16 11 8
Wind_Direction_850mb
224 225 219 216 215 213 222 208 207 201 210 202 200 203 206 211 217 227 253 239 230 257 277 223 229 123 322 316 333 339 307 32 332 19 4 20 327 358 297 316 332 349 342 3 348 24 10 349 353 42 342 15 13 29
220 222 217 216 217 218 213 211 210 212 208 194 199 201 205 209 216 226 241 240 233 235 261 233 247 264 199 271 337 16 9 345 345 318 19 304 333 322 339 354 10 39 16 354 25 47 26 2 21 29 35 32 31 48
221 210 213 211 216 213 212 213 214 211 204 190 198 200 204 208 215 226 243 237 223 249 265 196 199 232 163 156 164 323 40 1 346 331 318 324 311 324 348 7 309 84 17 37 204 19 58 29 30 31 37 36 51 56
218 223 217 214 214 214 219 215 213 204 190 191 197 198 202 208 215 226 238 230 222 235 219 207 188 199 201 191 193 206 221 323 323 340 310 308 308 19 331 314 317 0 318 356 73 39 162 30 21 22 49 66 67 76
214 213 213 216 212 211 216 218 207 196 184 189 195 198 201 207 215 228 232 227 226 222 140 156 198 237 224 194 194 205 212 338 333 316 275 298 308 312 258 292 263 21 3 357 74 31 28 29 17 46 71 72 77 75
210 216 214 214 214 216 215 212 200 187 180 189 191 195 200 204 211 205 218 232 222 213 211 198 206 175 155 170 180 190 198 185 184 288 293 289 332 307 306 278 128 81 68 92 72 37 81 51 51 69 81 82 80 80
207 211 211 218 208 212 215 203 196 181 181 187 184 192 198 201 204 196 221 189 183 183 202 135 171 156 143 153 202 220 207 203 170 225 258 295 260 317 261 261 139 175 163 172 159 122 65 70 84 81 84 87 85 84
205 208 208 215 213 213 213 193 181 175 182 178 184 191 193 195 197 215 207 186 176 186 199 165 114 152 172 194 206 205 190 204 267 181 259 302 298 243 251 234 188 171 150 152 155 149 131 128 115 102 91 87 93 89
208 211 210 212 211 208 199 186 173 178 176 180 183 180 177 190 197 214 206 201 196 215 214 198 204 163 162 169 151 151 211 221 253 230 135 258 186 232 217 190 189 183 172 165 151 142 141 146 141 134 132 123 118 111
206 208 211 209 204 199 188 174 172 179 178 173 168 151 172 182 184 168 171 191 204 218 217 217 161 130 158 163 158 165 294 331 225 141 268 225 260 242 199 177 181 178 179 171 159 156 159 153 143 140 140 127 120 119
202 206 214 203 201 192 180 172 178 177 171 162 159 159 159 149 147 173 169 188 196 234 206 182 180 137 177 157 166 201 146 84 264 102 272 216 262 205 180 174 178 181 182 178 178 178 173 171 159 158 151 140 131 132
198 201 201 194 184 183 175 176 178 172 167 164 157 129 131 156 150 175 183 181 222 217 171 156 153 136 149 151 155 173 186 186 233 134 261 257 216 174 174 174 179 178 176 177 183 181 173 166 162 157 147 138 134 130
190 191 192 185 186 183 182 178 177 169 155 138 122 152 145 161 182 195 188 205 224 176 174 155 137 151 127 145 94 170 193 200 128 216 235 236 181 178 179 176 172 172 174 177 173 167 165 164 156 151 149 145 138 131
189 183 185 181 184 183 175 175 173 155 140 132 165 155 199 176 237 192 189 128 158 158 152 140 122 143 132 134 113 207 74 243 219 238 239 200 207 183 180 180 178 175 173 173 173 172 172 172 167 161 157 152 147 145
191 185 185 187 188 177 175 173 168 154 133 172 169 193 198 166 137 157 139 131 137 151 141 121 102 127 117 117 162 111 151 236 221 235 182 198 182 180 181 182 180 180 174 174 175 175 175 174 172 169 162 154 147 150
183 177 177 180 177 174 166 164 155 142 144 168 156 124 129 138 143 163 159 146 151 153 138 123 124 138 146 127 165 215 210 225 212 198 197 171 174 182 186 186 183 181 179 178 179 180 178 176 176 174 169 164 162 161
174 169 171 165 166 165 159 153 141 124 216 154 115 163 168 116 168 167 162 163 161 157 144 140 155 170 113 156 234 197 218 269 181 176 183 182 183 182 184 184 183 181 180 179 180 177 178 179 179 179 179 172 170 169
162 159 154 160 158 151 143 151 120 168 150 131 156 170 144 139 155 158 163 163 162 184 155 174 138 175 195 194 224 215 219 210 199 188 179 182 185 185 183 183 181 181 181 181 183 184 185 186 184 181 181 180 180 181
157 158 164 168 160 143 132 140 159 126 108 132 138 151 139 142 158 168 169 168 168 163 155 155 182 209 219 217 217 192 201 202 200 187 181 182 183 184 180 179 182 183 186 188 189 189 190 189 190 191 190 192 191 191
160 159 163 153 148 131 103 104 146 118 131 151 147 141 130 134 146 161 168 172 163 168 189 205 219 221 217 219 203 207 221 217 204 180 182 181 179 180 184 185 186 188 189 190 192 194 195 195 195 194 198 200 200 200
139 142 145 146 121 90 100 123 100 99 124 130 141 122 105 132 132 153 178 180 198 223 236 230 231 233 232 220 207 212 222 218 213 213 205 190 186 185 187 188 191 195 198 198 199 201 200 203 203 200 200 201 202 204
139 150 141 138 93 84 78 70 112 118 110 126 131 132 141 156 141 158 168 195 234 233 219 234 241 238 238 227 225 228 225 214 213 215 220 213 195 193 194 194 195 197 200 203 205 206 206 204 204 203 201 201 206 209
138 137 121 91 83 62 94 82 86 78 106 162 142 121 146 128 154 161 223 228 241 233 235 239 241 240 237 231 226 226 230 220 218 216 215 213 209 209 206 202 202 203 202 202 203 205 207 208 205 206 205 202 205 215
138 108 83 79 78 105 125 75 97 111 120 142 139 129 161 137 156 167 257 249 239 241 237 237 237 235 233 231 228 230 227 226 218 214 214 212 210 210 210 210 208 207 208 212 210 209 209 209 212 210 208 206 210 217
93 49 100 67 109 122 116 134 112 101 107 153 133 162 159 160 158 225 237 256 240 238 237 232 229 229 230 233 232 226 224 222 220 217 213 210 210 209 207 207 208 209 209 209 211 211 210 210 211 210 208 208 212 215
79 29 79 148 151 138 158 130 175 157 133 145 146 123 136 134 226 242 227 232 244 253 244 236 233 229 228 228 230 230 228 224 218 217 219 218 216 216 215 210 208 208 210 211 214 214 214 212 210 209 206 208 209 212
113 165 104 109 124 123 99 94 135 126 153 164 163 163 156 186 231 245 258 256 264 279 283 251 227 221 223 225 226 224 216 216 218 218 219 217 216 215 215 224 224 222 219 218 215 212 215 213 209 205 204 204 205 213
100 147 138 144 118 139 132 141 151 181 167 161 144 182 180 205 238 209 264 296 306 302 297 266 220 211 210 214 214 215 212 209 208 208 208 209 209 207 204 206 210 213 212 212 212 209 205 204 203 201 200 198 197 208
87 132 128 103 141 178 191 173 191 172 159 169 165 197 229 232 234 247 292 311 316 304 269 237 208 203 204 206 207 207 207 209 206 204 207 208 205 205 204 205 208 208 206 203 201 200 197 194 194 195 195 189 195 208
133 150 111 126 156 177 173 177 185 182 185 184 196 231 243 244 251 262 283 288 286 269 241 218 210 204 207 210 207 203 203 202 205 211 219 219 219 215 211 209 205 202 201 198 195 190 189 191 191 191 183 183 195 210
153 155 121 121 132 169 175 181 179 189 202 217 230 243 252 275 280 273 262 257 251 243 229 215 210 206 201 202 206 208 206 206 204 208 211 213 212 212 210 203 200 200 198 195 195 195 190 184 185 178 177 187 196 214
134 98 107 122 99 150 155 171 171 194 235 238 247 234 255 247 259 266 268 255 239 231 226 217 209 205 203 199 202 205 206 208 210 211 210 209 204 201 199 199 200 196 193 190 184 183 181 182 174 174 181 186 195 210
110 138 113 113 112 173 178 166 181 234 235 247 259 238 221 228 267 283 310 292 250 229 218 211 206 205 203 203 205 206 206 205 203 204 205 200 194 197 198 197 195 189 185 181 180 180 179 169 171 176 178 184 192 206